Miscellaneous Local Product
Issued by NWS Hastings, NE

Home | Current Version | Previous Version | Graphics & Text | Print | Product List | Glossary On
Versions: 1 2 3 4 5 6 7 8 9 10 11 12 13 14 15 16 17 18 19 20 21 22 23 24 25 26 27 28 29 30 31 32 33 34 35 36 37 38 39 40 41 42 43 44 45 46 47 48 49 50
000
AXUS43 KGID 210210
MISGRI

GID CWA HOURLY WEATHER ROUNDUP
NATIONAL WEATHER SERVICE HASTINGS NE
900 PM CDT SAT SEP 20 2014

NOTE: "FAIR" INDICATES FEW OR NO CLOUDS BELOW 12,000 FEET WITH NO
SIGNIFICANT WEATHER AND/OR OBSTRUCTIONS TO VISIBILITY.

...SOUTH CENTRAL NEBRASKA...

CITY           SKY/WX    TMP DP  RH WIND       PRES   REMARKS
GRAND ISLAND   CLEAR     68  53  58 N8        30.06R
HASTINGS       CLEAR     69  53  56 N5        30.06R
KEARNEY        CLEAR     70  52  52 NW7       30.09R
ORD            CLEAR     64  49  57 NW6       30.08R
YORK           CLEAR     66  57  72 NW9       30.03R
AURORA         CLEAR     66  54  63 N7        30.05R
LEXINGTON      CLEAR     67  52  58 N5        30.11R
HOLDREGE       CLEAR     69  52  54 N7        30.09R
HEBRON         CLEAR     66  57  71 CALM      30.03R

...NEBRASKA PANHANDLE...

CITY           SKY/WX    TMP DP  RH WIND       PRES   REMARKS
CHADRON        CLEAR     61  41  47 E5        30.23R
ALLIANCE       CLEAR     60  41  49 NE9       30.23R
SCOTTSBLUFF    CLEAR     65  41  41 NE8       30.22R
SIDNEY         CLEAR     68  44  42 NE10      30.23R

...WESTERN AND NORTH CENTRAL NEBRASKA...

CITY           SKY/WX    TMP DP  RH WIND       PRES   REMARKS
VALENTINE      CLEAR     66  40  38 N8        30.15R
AINSWORTH      CLEAR     61  44  53 NW7       30.15R
ONEILL         CLEAR     64  46  50 NW8       30.09R
BROKEN BOW     CLEAR     64  47  53 N10       30.11R
IMPERIAL       CLEAR     66  51  58 N8        30.15R
NORTH PLATTE   CLEAR     67  47  48 N9        30.13R
MCCOOK         CLEAR     69  52  54 N7        30.10R HAZE

...EASTERN NEBRASKA...

CITY           SKY/WX    TMP DP  RH WIND       PRES   REMARKS
NORFOLK        CLEAR     70  49  47 NW9       30.03R
SO SIOUX CITY  CLEAR     73  51  46 N18G29    29.98R
TEKAMAH        CLEAR     74  55  51 NW10      29.96R
COLUMBUS       CLEAR     64  54  68 NW12      30.03R
ALBION         CLEAR     69  47  46 N6        30.06R
OMAHA EPPLEY   PTCLDY    72  59  63 W5        29.95R
OFFUTT AFB     CLEAR     65  64  99 NW1       29.95R
MILLARD        CLEAR     69  62  79 CALM      29.96R
LINCOLN        CLEAR     70  59  68 CALM      29.99R
NEBRASKA CITY    N/A     71  53  52 W7        29.97R
BEATRICE       CLEAR     69  57  67 CALM      30.00R
FALLS CITY     PTCLDY    73  69  87 W8        29.97R

...NORTHERN KANSAS...

CITY           SKY/WX    TMP DP  RH WIND       PRES   REMARKS
GOODLAND       CLEAR     68  51  54 E5        30.17R
HILL CITY      CLEAR     71  53  52 N8        30.08R
NORTON         CLEAR     66  48  52 CALM      30.08R
SMITH CENTER   HAZE      68  54  60 N6        30.06R VSB 1
BELOIT         CLEAR     70  63  78 N3        30.02R
HAYS           CLEAR     73  61  64 NE10      30.05R
RUSSELL        CLEAR     72  63  73 NE7       30.03R
CONCORDIA      CLEAR     71  66  84 N3        30.03R
SALINA         PTCLDY    77  68  73 E8        30.01R
TOPEKA         CLEAR     70  69  97 CALM      29.97R



USA.gov is the U.S. government's official web portal to all federal, state and local government web resources and services.